Location: Cary
(35.7910°N, 78.7810°W)
Time: 20:43:14
(UTC-05:00)

Tiangong 1 - Visible Passes

Search period start: 24 November 2017 00:00
Search period end: 04 December 2017 00:00
Orbit: 283 x 307 km, 42.8° (Epoch: 24 November)

Date Brightness Start Highest point End Pass type
(mag) Time Alt. Az. Time Alt. Az. Time Alt. Az.
24 Nov 2.0 17:41:17 10° SSW 17:43:33 27° SSE 17:45:29 12° E visible
24 Nov 4.4 19:15:50 10° W 19:15:53 10° W 19:15:53 10° W visible
25 Nov 0.6 17:47:20 10° SW 17:49:55 65° SSE 17:51:44 17° ENE visible
26 Nov 0.9 17:53:40 10° WSW 17:56:13 54° NNW 17:57:47 20° NE visible
27 Nov 1.9 18:00:06 10° W 18:02:28 30° NNW 18:03:41 20° NNE visible
28 Nov 2.4 18:06:33 10° WNW 18:08:38 21° NNW 18:09:25 18° NNE visible
29 Nov 2.6 18:12:51 10° NW 18:14:43 17° N 18:15:01 17° N visible
30 Nov 2.7 18:18:53 10° NW 18:20:29 17° N 18:20:29 17° N visible
01 Dec 2.8 18:24:35 10° NW 18:25:52 17° NNW 18:25:52 17° NNW visible
02 Dec 2.7 18:30:00 10° NW 18:31:11 19° NNW 18:31:11 19° NNW visible
03 Dec 2.6 18:35:13 10° NW 18:36:27 22° NNW 18:36:27 22° NNW visible
